Back to catalog

CHINASAT-3A

AliveCommunicationsGEO
NORAD 60179·PAYLOAD·🇨🇳 China

Launched Jun 29, 2024 from Wenchang Space Launch Site

Loading…

TLE

FreshSource: Space-Track

Epoch: Sep 14, 2026, 02:18 UTC

1 60179U 24122A   26257.09628352 -.00000322  00000-0  00000+0 0  9998
2 60179   0.0133 283.7837 0002831 281.8297 283.6601  1.00267790  8209

Track CHINASAT-3A in real time with AllMySat

Download on the App Store